Terminal Aerodrome Forecast
Issued by NWS Blacksburg, VA

Current Version | Previous Version | Graphics & Text | Print | Product List | Glossary On
Versions: 1 2 3 4 5 6 7 8 9 10 11 12 13 14 15 16 17 18 19 20 21 22 23
000
FTUS41 KRNK 291018 AAC
TAFBLF
TAF AMD
KBLF 291018Z 2910/3006 30007KT P6SM -SHRA SCT004 OVC014
      TEMPO 2910/2914 5SM -SHRA BR OVC004
     FM291500 29009G18KT P6SM -RA BKN020 OVC090
     FM291800 29011KT P6SM BKN025 BKN100
     FM292100 29007KT P6SM SCT025=

USA.gov is the U.S. government's official web portal to all federal, state and local government web resources and services.